sat.trackr.live / text

‹ back to catalog

IRIDE-MS2-HEO-15

NORAD 68987 · 2026-100H

PAYLOAD ACTIVE UNKNOWN

§ Identity

Operator
Country
IT
Launch date
2026-05-03
Launch site
AFWTR
Launch vehicle
Mass (kg)
RCS (m²)

External: N2YO · Heavens-Above · Gunter

§ Orbital elements

Epoch: 2026-09-20T04:15:10.447200Z

Period
96.51 min
Inclination
97.7203°
Eccentricity
0.0002264
Mean motion
14.92019657 rev/d
Perigee alt
590.1 km
Apogee alt
593.2 km
Semi-major
6,969.8 km
B*
8.4616e-5
RAAN
158.7792°
Arg perigee
130.5129°
Mean anomaly
229.6288°
Rev number
2,086

§ Raw data

IRIDE-MS2-HEO-151 68987U 26100H   26263.17720425  .00000803  00000+0  84616-4 0  99932 68987  97.7203 158.7792 0002264 130.5129 229.6288 14.92019657 20869

JSON: /api/v1/satellites/68987 · /tle

For live sub-satellite position, see the globe view (requires WebGL).

§ Visibility from observer

Set your observer location to see the next 7 days of passes ≥ 10°. The values pass through the URL so the page stays shareable.

No JS? Fill the form by hand. The geolocation button needs JavaScript.